SCP
0 0 0 0 0 0 0 0 0 0 0 0 0 0 0 0 0 0 -0 0 -0 -0 -0 -0 -0 -0 -0 -0 0 0 -0 -0 -0 -0 -0 -0 -0 -0 0 -0 -0 -0 -0 -0 -0 -0 -0 -0 -0
0 0 0 0 0 0 0 0 0 0 0 0 0 0 0 0 0 0 0 0 0 -0 -0 -0 -0 -0 -0 0 0 0 -0 -0 -0 -0 -0 -0 -0 0 -0 -0 -0 -0 -0 -0 -0 -0 -0 -0 0
0 0 0 0 0 0 0 0 0 0 0 0 0 0 0 0 0 0 0 0 0 0 0 0 -0 -0 0 0 0 0 -0 -0 -0 -0 -0 -0 -0 -0 -0 -0 -0 -0 -0 -0 -0 -0 0 0 0
0 0 0 0 0 0 0 0 0 0 0 0 0 0 0 0 0 0 0 0 0 0 0 0 -0 -0 0 0 0 0 0 -0 -0 -0 -0 -0 -0 -0 -0 -0 -0 -0 -0 0 0 0 0 0 0
0 0 0 0 0 0 0 0 0 0 0 0 0 0 0 0 0 0 0 0 0 0 0 0 -0 -0 0 0 0 0 0 -0 -0 -0 -0 0 -0 0 0 0 0 0 0 0 0 0 0 -0 -0
0 0 0 0 0 0 -0 -0 0 0 0 0 0 0 0 0 0 0 0 0 0 0 0 0 0 0 0 0 0 0 0 0 -0 -0 0 0 0 0 0 0 0 0 0 0 0 0 -0 -0 -0
0 0 0 0 0 0 0 -0 0 0 0 0 0 0 0 0 0 0 0 0 0 0 0 0 0 0 0 0 0 0 0 0 0 0 0 0 0 0 0 0 0 0 0 0 0 0 -0 -0 -0
0 0 0 0 0 0 -0 -0 0 0 0 -0 -0 0 0 0 0 0 0 0 0 0 0 0 0 0 0 0 0 0 0 0 0 0 0 0 0 0 0 0 0 0 0 0 0 0 -0 -0 0
0 0 0 0 0 0 0 -0 0 0 0 0 0 0 0 -0 0 0 0 0 0 0 0 0 0 0 0 0 0 0 0 0 0 0 0 0 0 0 0 0 0 0 0 0 0 0 0 0 0
0 0 0 0 0 0 0 -0 -0 -0 0 0 0 0 0 0 0 0 0 0 0 0 0 0 0 0 0 0 0 0 0 0 0 0 0 0 0 0 0 0 0 0 0 0 0 0 0 0 0
0 0 0 0 0 0 0 -0 -0 -0 0 -0 -0 0 0 0 0 0 0 0 0 0 0 0 0 0 0 0 0 0 0 0 0 0 0 0 0 0 0 0 0 0 0 0 0 0 0 0 0
0 0 0 0 0 0 0 -0 -0 -0 -0 0 0 -0 0 0 0 0 0 0 0 0 0 0 0 0 0 0 0 0 0 0 0 0 0 0 0 0 0 0 0 0 0 0 0 0 0 0 0
0 0 0 0 0 0 0 0 0 -0 -0 0 0 0 -0 0 0 0 0 0 0 0 0 0 0 0 0 0 0 0 0 0 0 0 0 0 0 0 0 0 0 0 0 0 0 0 0 0 0
-0 -0 0 0 0 0 0 0 0 0 0 0 0 0 0 0 0 0 0 0 0 0 0 0 0 0 0 0 0 0 0 0 0 0 0 0 0 0 0 0 0 0 0 0 0 0 0 0 0
-0 -0 -0 0 -0 0 0 -0 0 0 0 0 0 0 0 0 0 0 0 0 0 0 0 0 0 0 0 0 0 0 0 0 0 0 0 0 0 0 0 0 0 0 0 0 0 0 0 0 0
-0 -0 -0 -0 -0 0 0 0 0 0 0 0 0 0 0 0 0 0 0 0 0 0 0 0 0 0 0 0 0 0 0 0 0 0 0 0 0 0 0 0 0 0 0 0 0 0 0 0 0
-0 -0 -0 -0 -0 0 0 0 0 0 0 0 0 0 0 0 0 0 0 0 0 0 0 0 0 0 0 0 0 0 0 0 0 0 0 0 0 0 0 0 0 0 0 0 0 0 0 0 0
-0 -0 -0 -0 -0 0 -0 0 0 0 0 0 0 0 0 0 0 0 0 -0 0 0 0 0 0 0 0 0 0 0 0 0 0 0 0 0 0 0 0 0 0 0 0 0 0 0 0 0 0
-0 -0 0 0 0 0 0 0 0 -0 0 0 0 0 0 0 0 0 0 0 -0 -0 0 0 0 0 0 0 0 0 0 0 0 0 0 0 0 0 0 0 0 0 0 0 0 0 0 0 0
-0 -0 -0 0 0 0 0 0 0 0 0 0 0 0 0 -0 0 0 0 0 0 0 0 0 0 0 0 0 0 0 0 0 0 0 0 0 0 0 0 0 0 0 0 0 0 0 0 0 0
0 0 0 0 0 0 0 0 0 0 0 0 0 0 0 0 0 0 0 0 0 0 0 0 0 0 0 0 0 0 0 0 0 0 0 0 0 0 0 0 0 0 0 0 0 0 0 0 0
0 0 0 0 0 0 0 0 0 0 0 0 0 0 0 0 0 0 0 -0 -0 0 0 0 0 0 0 0 0 0 0 0 0 0 0 0 0 0 0 0 0 0 0 0 0 0 0 0 0
0 0 0 0 0 0 0 0 0 0 0 0 0 0 0 0 0 0 0 0 0 0 0 0 0 0 0 0 0 0 0 0 0 0 0 0 0 0 0 0 0 0 0 0 0 0 0 0 0
0 0 0 0 0 0 0 0 0 0 0 0 0 0 0 0 0 0 0 0 0 0 0 0 -0 0 0 0 0 0 0 0 0 0 0 0 0 0 0 0 0 0 0 0 0 0 0 0 0
0 0 0 0 0 0 0 0 0 0 0 0 0 0 0 -0 0 0 0 0 0 0 0 0 0 -0 -0 0 0 0 0 0 0 0 0 0 0 0 0 0 0 0 0 0 0 0 0 0 0
0 0 0 0 0 0 0 0 0 0 0 0 0 0 0 -0 -0 -0 0 0 0 0 0 0 0 0 0 0 0 0 0 0 0 0 0 0 0 0 0 0 0 0 0 0 0 0 0 0 0
0 0 0 0 0 0 0 0 0 0 0 0 0 0 0 0 -0 -0 -0 0 0 0 0 0 0 0 0 0 0 0 0 0 0 0 0 0 0 0 0 0 0 0 0 0 0 0 0 0 0
0 0 0 0 0 0 0 0 0 0 0 0 0 0 0 0 0 0 0 0 0 0 -0 0 0 0 0 0 -0 -0 0 0 0 0 0 0 0 0 0 0 0 0 0 0 0 0 0 0 0
0 0 0 0 0 0 0 0 0 0 0 0 0 0 0 0 0 0 0 0 0 0 0 -0 0 0 0 0 0 0 0 0 0 0 0 0 0 0 0 0 0 0 0 0 0 0 0 0 0
0 0 0 0 0 0 0 0 0 0 0 0 0 0 0 0 0 0 0 0 0 0 0 0 0 0 0 0 0 0 0 0 0 0 0 0 0 0 0 0 0 0 0 0 0 0 0 0 0
Wind_Speed_500mb
10 8 4 3 6 8 5 12 5 11 10 6 5 5 12 5 9 8 10 21 19 43 44 45 42 39 32 28 37 44 38 32 31 26 20 14 10 11 19 24 24 25 23 22 23 26 26 25 25
10 7 2 3 8 2 10 7 11 4 16 11 7 5 6 10 8 4 19 24 26 42 43 46 44 41 35 33 47 43 40 39 32 26 19 13 10 16 21 24 25 22 22 22 23 24 23 22 21
15 7 2 6 7 11 9 10 12 10 26 10 6 7 7 7 11 8 11 23 35 43 41 44 45 41 40 42 52 50 47 34 33 23 19 13 9 20 23 24 25 23 19 22 21 20 19 18 17
11 4 5 4 10 11 11 6 2 21 11 2 11 13 11 14 6 11 18 24 36 40 41 43 44 44 43 48 58 52 46 42 32 26 22 15 10 14 24 23 26 22 18 21 21 20 18 16 14
4 3 3 5 10 10 9 23 19 12 14 18 14 9 12 17 17 19 21 25 33 38 41 45 46 44 44 49 62 56 45 39 33 31 25 17 10 10 14 22 22 22 20 22 20 18 16 15 13
1 4 5 5 9 12 14 18 19 14 24 29 10 12 13 18 24 25 25 27 32 33 41 46 48 45 45 51 59 55 46 44 39 33 26 20 16 12 14 17 20 18 16 19 19 18 17 15 13
6 6 8 8 6 12 9 13 7 13 17 19 15 5 14 29 28 27 28 32 35 36 43 47 48 48 46 54 59 55 53 51 43 33 27 23 19 15 14 21 20 18 17 17 18 17 17 16 14
5 7 1 5 5 13 11 8 17 11 11 20 10 7 11 24 38 34 33 37 39 38 45 49 50 50 52 57 62 57 54 52 44 39 35 27 23 19 18 19 22 21 21 19 18 18 18 18 18
6 6 2 5 4 9 43 26 34 41 35 26 22 33 44 51 39 42 44 47 47 46 50 54 55 54 56 60 66 60 55 52 46 41 38 31 28 25 22 22 22 25 23 21 20 19 18 19 18
10 5 3 8 7 8 33 24 34 24 42 50 65 54 40 45 37 54 57 60 60 59 59 60 59 60 60 61 69 68 60 57 53 49 42 36 32 29 26 26 28 27 26 24 22 19 18 19 18
10 6 7 11 31 36 27 31 40 18 13 27 31 50 63 53 44 60 65 64 65 61 60 62 64 64 64 65 68 72 67 62 62 57 48 40 38 35 34 33 32 30 30 27 25 22 21 21 20
8 28 26 28 40 37 32 41 30 35 31 66 72 71 71 64 54 66 75 73 69 65 63 64 66 68 69 68 71 73 72 70 68 60 51 47 44 41 40 36 33 32 31 29 27 25 25 22 22
11 14 30 40 48 49 41 39 40 44 49 57 55 57 60 63 57 63 73 73 72 69 67 66 67 72 73 75 72 74 75 72 68 61 55 52 49 46 42 38 37 34 33 30 29 28 27 25 24
11 16 31 24 46 50 45 45 28 24 64 69 64 56 67 65 63 69 72 81 80 80 73 68 67 69 74 78 76 76 75 74 70 65 59 54 51 48 46 42 38 37 34 30 30 30 29 28 28
12 8 16 23 34 15 62 13 9 66 89 73 69 73 64 54 56 55 74 78 85 85 80 73 68 67 70 76 77 78 77 74 73 68 62 59 54 49 48 45 43 39 36 34 34 34 34 32 31
12 12 12 16 30 22 25 12 42 77 84 81 73 73 82 71 57 58 63 72 81 84 85 79 75 71 69 70 76 78 78 77 75 72 67 64 58 51 49 48 46 41 39 38 39 36 35 34 32
15 5 8 17 23 13 18 30 35 66 68 66 75 71 73 77 69 54 58 60 66 79 84 85 83 79 75 69 70 75 77 77 77 75 71 67 61 54 52 50 48 43 44 43 40 39 36 32 29
11 8 11 14 13 12 33 34 44 58 60 66 65 64 66 71 69 63 48 51 55 60 75 79 84 86 81 75 69 72 78 79 80 80 76 70 66 61 58 52 49 45 47 45 44 42 38 34 29
6 5 12 10 17 22 16 44 46 57 58 55 53 68 64 62 59 60 60 52 40 37 57 74 80 84 85 86 81 82 85 85 83 81 76 68 70 68 65 58 47 49 52 48 46 42 41 38 31
2 7 11 23 18 14 31 58 45 37 33 48 67 66 39 39 48 64 54 47 45 32 35 56 64 83 89 92 92 87 83 83 77 75 75 69 64 68 65 60 55 52 52 52 50 49 46 41 33
6 4 11 18 28 21 15 18 11 20 38 38 39 51 49 45 45 35 61 51 52 43 35 44 43 61 87 90 96 94 85 83 81 80 84 81 69 67 63 62 62 56 53 55 54 54 52 48 35
10 4 18 28 25 11 14 13 12 15 30 15 28 49 66 57 52 55 28 38 27 28 61 44 35 59 58 77 86 98 102 97 96 89 88 86 77 70 71 70 65 61 57 59 58 56 57 52 46
13 20 22 17 16 9 8 4 16 21 21 12 29 47 46 56 61 67 68 53 59 24 28 32 36 49 43 57 66 88 96 101 95 87 89 86 84 87 77 74 71 70 68 63 58 58 60 60 56
16 15 13 5 6 5 7 5 12 9 12 22 31 41 31 55 69 71 67 67 67 54 43 37 50 50 34 27 70 76 93 98 91 90 87 87 87 87 87 81 79 78 75 71 62 58 59 61 62
18 12 9 13 10 10 2 10 23 28 25 14 33 22 26 47 64 76 83 85 84 72 54 41 35 63 72 62 43 72 81 93 98 91 92 89 84 84 82 79 84 86 79 75 70 65 61 61 65
8 5 7 8 7 17 29 13 13 15 46 36 19 20 42 57 62 72 77 82 82 77 70 51 42 40 45 68 69 57 74 79 95 95 97 91 89 85 79 75 76 90 88 78 75 71 68 69 72
2 6 5 2 6 7 9 12 23 16 16 29 33 31 56 64 77 81 81 76 74 74 73 66 47 40 39 42 60 69 55 75 84 87 86 83 83 81 74 68 62 64 84 88 79 79 77 75 83
6 6 5 5 7 13 14 15 17 23 28 22 24 47 60 83 81 80 77 73 71 64 66 68 51 44 39 44 41 56 67 71 76 81 59 55 65 75 70 67 62 60 59 83 83 80 81 86 85
5 2 5 5 8 6 11 20 14 18 18 25 33 53 66 76 77 78 76 70 67 62 53 56 47 44 37 38 43 43 36 52 68 70 58 54 53 56 64 67 62 61 64 70 79 79 84 81 70
5 11 10 8 9 7 7 22 12 18 19 27 45 71 80 75 82 79 70 69 60 53 45 46 43 43 34 37 36 37 33 57 76 82 65 58 56 49 71 64 60 75 74 73 83 65 49 39 42
Wind_Direction_500mb
341 336 285 253 48 65 235 259 273 314 313 309 258 194 201 202 174 207 186 174 182 185 181 186 189 192 189 185 168 159 164 166 168 170 165 170 161 152 135 130 130 127 124 123 120 123 126 123 116
335 348 230 121 103 113 262 228 237 241 294 279 130 160 254 236 196 209 161 175 174 183 183 186 190 190 184 176 158 155 165 171 177 171 170 172 165 147 139 138 134 132 132 129 125 128 130 123 117
337 345 194 134 149 183 232 225 197 287 330 215 297 248 247 257 210 197 192 180 171 182 188 189 190 190 183 173 164 165 172 181 188 182 182 189 191 146 146 145 142 139 140 133 132 132 129 125 120
349 341 40 109 227 261 213 274 286 333 354 244 303 290 253 217 203 214 197 183 177 184 189 191 191 192 184 178 173 175 178 192 201 193 189 197 189 171 150 148 155 150 148 140 138 138 141 137 124
336 105 27 339 290 273 271 282 302 310 297 290 260 259 268 229 220 197 192 191 188 188 190 193 195 195 188 184 181 180 183 190 198 192 196 207 200 170 166 162 157 156 148 141 146 146 146 145 145
190 110 114 252 256 280 286 286 290 281 290 318 243 219 251 243 216 200 202 199 191 197 194 196 197 200 193 186 185 186 189 194 204 197 204 208 200 193 188 186 175 172 154 152 154 156 159 163 164
114 91 210 206 236 289 264 316 247 273 297 327 276 201 263 249 213 213 205 198 193 195 201 199 200 203 199 190 185 190 199 198 201 208 205 205 209 207 203 197 185 174 170 168 166 169 175 178 187
104 105 351 272 240 276 322 287 269 269 290 337 337 310 290 297 227 208 202 199 197 200 202 204 203 205 200 194 192 195 196 197 203 213 218 212 219 219 210 201 195 192 185 182 181 185 188 195 204
88 71 182 290 321 297 352 1 328 323 301 312 315 305 304 293 240 208 198 195 201 204 204 207 207 205 201 197 197 200 200 201 205 212 223 217 226 228 223 213 203 200 194 193 195 199 203 211 215
78 118 22 48 355 330 321 330 325 333 314 305 309 314 314 295 250 218 206 204 204 207 205 207 209 206 202 201 202 204 205 206 207 216 222 226 232 236 233 224 213 205 203 204 207 211 216 223 226
7 99 345 319 336 329 308 309 320 318 316 305 324 309 318 318 254 228 224 219 215 211 210 209 208 209 206 204 204 206 207 207 211 216 222 230 236 237 232 223 218 213 208 211 215 220 223 223 223
49 20 6 325 325 323 310 308 297 280 275 292 293 296 299 299 281 243 233 227 221 217 216 214 213 210 210 209 209 210 209 208 212 219 223 231 237 239 235 226 223 216 215 216 217 223 226 225 224
62 343 341 357 3 343 331 322 297 283 307 300 296 292 297 292 283 264 242 237 230 224 221 220 216 215 212 214 214 215 215 217 219 222 227 234 240 242 236 227 221 215 214 216 222 226 229 229 232
330 339 343 1 1 343 349 322 308 352 347 341 333 317 291 285 282 269 250 243 238 233 228 224 221 220 217 219 218 219 221 221 223 228 233 237 241 241 235 227 221 217 218 220 224 224 227 226 229
352 48 344 359 347 332 348 3 53 342 336 333 333 323 318 305 287 271 267 255 250 240 232 229 225 222 222 224 223 223 224 226 228 230 235 239 239 236 233 231 230 225 225 229 225 226 227 230 233
30 59 3 306 340 344 19 314 330 325 328 320 320 316 312 304 297 277 265 271 258 245 239 233 229 226 226 227 229 228 227 229 232 234 236 237 236 234 234 232 230 227 229 229 228 230 233 237 243
21 338 328 307 317 321 28 309 307 312 310 306 307 311 305 302 295 284 268 265 268 268 247 238 231 229 228 229 232 230 230 232 235 237 237 235 235 234 235 233 230 229 230 231 232 234 239 244 248
315 356 297 282 306 339 317 296 304 303 300 293 294 305 311 298 292 288 287 266 269 262 263 257 241 230 230 230 231 231 232 232 235 236 236 236 236 234 234 233 230 230 232 233 231 233 237 240 245
212 232 291 271 307 328 319 294 293 299 296 296 302 307 309 301 287 296 297 270 284 282 262 263 253 245 232 228 228 228 229 230 230 232 234 236 237 236 233 231 230 230 232 232 235 237 238 240 243
30 334 310 289 296 316 310 299 296 286 287 302 305 308 330 333 296 268 303 299 286 276 281 260 276 255 245 235 230 231 233 233 235 235 234 232 232 233 231 230 230 230 235 235 236 236 238 242 238
320 260 307 291 317 293 341 278 328 300 307 340 348 357 15 6 355 308 285 300 291 274 298 300 293 285 263 250 236 232 234 234 236 235 237 233 231 234 231 230 232 233 237 239 239 239 240 242 238
317 347 312 310 330 315 57 289 295 305 321 309 337 354 358 10 20 16 355 346 326 293 269 286 291 289 267 246 236 237 231 231 235 235 237 239 233 238 234 233 234 237 240 242 241 242 244 245 240
266 321 298 304 301 354 2 336 280 320 316 313 321 336 347 360 4 11 14 14 25 338 260 267 276 280 279 257 253 238 240 239 241 241 241 242 239 239 245 237 237 241 242 244 244 242 242 244 245
315 322 328 28 11 356 238 64 282 285 273 311 311 327 341 347 350 350 353 353 359 4 9 260 259 258 280 284 255 251 244 245 237 237 241 243 243 240 244 244 241 242 245 245 244 245 244 242 243
25 26 349 359 6 257 318 351 256 288 295 273 298 302 333 341 342 341 340 337 341 346 354 354 294 272 279 278 282 254 251 246 243 239 240 243 244 243 244 243 242 242 240 241 243 243 246 246 241
2 73 121 289 302 288 301 227 257 244 298 313 299 306 320 331 331 332 330 324 327 332 332 340 339 329 297 268 267 270 252 255 248 245 246 247 249 252 253 254 256 245 242 240 242 243 245 246 246
360 45 170 227 289 286 266 281 288 275 292 322 322 312 319 325 328 328 325 315 311 313 313 322 324 320 315 304 266 256 272 251 253 251 251 252 253 255 257 260 258 251 242 238 240 241 245 247 253
162 154 37 24 345 296 284 280 248 298 304 314 318 319 320 320 319 320 323 321 311 302 303 309 314 315 312 310 294 265 254 258 265 244 251 258 265 258 258 256 249 252 249 236 237 240 247 247 245
133 101 83 130 158 242 307 283 225 254 279 293 299 309 309 308 316 319 322 323 319 311 302 302 307 309 310 313 306 280 251 253 257 259 256 263 270 267 266 259 250 248 244 235 237 237 247 237 232
148 204 155 129 255 227 265 265 251 260 275 290 305 310 310 308 313 314 317 325 322 322 320 309 298 304 307 312 300 292 277 259 262 253 258 254 260 271 257 257 257 243 238 233 232 226 187 180 174
Wind_Speed_850mb
10 8 4 3 6 8 5 12 5 11 10 6 5 5 12 5 9 8 10 21 19 43 44 45 42 39 32 28 37 44 38 32 31 26 20 14 10 11 19 24 24 25 23 22 23 26 26 25 25
10 7 2 3 8 2 10 7 11 4 16 11 7 5 6 10 8 4 19 24 26 42 43 46 44 41 35 33 47 43 40 39 32 26 19 13 10 16 21 24 25 22 22 22 23 24 23 22 21
15 7 2 6 7 11 9 10 12 10 26 10 6 7 7 7 11 8 11 23 35 43 41 44 45 41 40 42 52 50 47 34 33 23 19 13 9 20 23 24 25 23 19 22 21 20 19 18 17
11 4 5 4 10 11 11 6 2 21 11 2 11 13 11 14 6 11 18 24 36 40 41 43 44 44 43 48 58 52 46 42 32 26 22 15 10 14 24 23 26 22 18 21 21 20 18 16 14
4 3 3 5 10 10 9 23 19 12 14 18 14 9 12 17 17 19 21 25 33 38 41 45 46 44 44 49 62 56 45 39 33 31 25 17 10 10 14 22 22 22 20 22 20 18 16 15 13
1 4 5 5 9 12 14 18 19 14 24 29 10 12 13 18 24 25 25 27 32 33 41 46 48 45 45 51 59 55 46 44 39 33 26 20 16 12 14 17 20 18 16 19 19 18 17 15 13
6 6 8 8 6 12 9 13 7 13 17 19 15 5 14 29 28 27 28 32 35 36 43 47 48 48 46 54 59 55 53 51 43 33 27 23 19 15 14 21 20 18 17 17 18 17 17 16 14
5 7 1 5 5 13 11 8 17 11 11 20 10 7 11 24 38 34 33 37 39 38 45 49 50 50 52 57 62 57 54 52 44 39 35 27 23 19 18 19 22 21 21 19 18 18 18 18 18
6 6 2 5 4 9 43 26 34 41 35 26 22 33 44 51 39 42 44 47 47 46 50 54 55 54 56 60 66 60 55 52 46 41 38 31 28 25 22 22 22 25 23 21 20 19 18 19 18
10 5 3 8 7 8 33 24 34 24 42 50 65 54 40 45 37 54 57 60 60 59 59 60 59 60 60 61 69 68 60 57 53 49 42 36 32 29 26 26 28 27 26 24 22 19 18 19 18
10 6 7 11 31 36 27 31 40 18 13 27 31 50 63 53 44 60 65 64 65 61 60 62 64 64 64 65 68 72 67 62 62 57 48 40 38 35 34 33 32 30 30 27 25 22 21 21 20
8 28 26 28 40 37 32 41 30 35 31 66 72 71 71 64 54 66 75 73 69 65 63 64 66 68 69 68 71 73 72 70 68 60 51 47 44 41 40 36 33 32 31 29 27 25 25 22 22
11 14 30 40 48 49 41 39 40 44 49 57 55 57 60 63 57 63 73 73 72 69 67 66 67 72 73 75 72 74 75 72 68 61 55 52 49 46 42 38 37 34 33 30 29 28 27 25 24
11 16 31 24 46 50 45 45 28 24 64 69 64 56 67 65 63 69 72 81 80 80 73 68 67 69 74 78 76 76 75 74 70 65 59 54 51 48 46 42 38 37 34 30 30 30 29 28 28
12 8 16 23 34 15 62 13 9 66 89 73 69 73 64 54 56 55 74 78 85 85 80 73 68 67 70 76 77 78 77 74 73 68 62 59 54 49 48 45 43 39 36 34 34 34 34 32 31
12 12 12 16 30 22 25 12 42 77 84 81 73 73 82 71 57 58 63 72 81 84 85 79 75 71 69 70 76 78 78 77 75 72 67 64 58 51 49 48 46 41 39 38 39 36 35 34 32
15 5 8 17 23 13 18 30 35 66 68 66 75 71 73 77 69 54 58 60 66 79 84 85 83 79 75 69 70 75 77 77 77 75 71 67 61 54 52 50 48 43 44 43 40 39 36 32 29
11 8 11 14 13 12 33 34 44 58 60 66 65 64 66 71 69 63 48 51 55 60 75 79 84 86 81 75 69 72 78 79 80 80 76 70 66 61 58 52 49 45 47 45 44 42 38 34 29
6 5 12 10 17 22 16 44 46 57 58 55 53 68 64 62 59 60 60 52 40 37 57 74 80 84 85 86 81 82 85 85 83 81 76 68 70 68 65 58 47 49 52 48 46 42 41 38 31
2 7 11 23 18 14 31 58 45 37 33 48 67 66 39 39 48 64 54 47 45 32 35 56 64 83 89 92 92 87 83 83 77 75 75 69 64 68 65 60 55 52 52 52 50 49 46 41 33
6 4 11 18 28 21 15 18 11 20 38 38 39 51 49 45 45 35 61 51 52 43 35 44 43 61 87 90 96 94 85 83 81 80 84 81 69 67 63 62 62 56 53 55 54 54 52 48 35
10 4 18 28 25 11 14 13 12 15 30 15 28 49 66 57 52 55 28 38 27 28 61 44 35 59 58 77 86 98 102 97 96 89 88 86 77 70 71 70 65 61 57 59 58 56 57 52 46
13 20 22 17 16 9 8 4 16 21 21 12 29 47 46 56 61 67 68 53 59 24 28 32 36 49 43 57 66 88 96 101 95 87 89 86 84 87 77 74 71 70 68 63 58 58 60 60 56
16 15 13 5 6 5 7 5 12 9 12 22 31 41 31 55 69 71 67 67 67 54 43 37 50 50 34 27 70 76 93 98 91 90 87 87 87 87 87 81 79 78 75 71 62 58 59 61 62
18 12 9 13 10 10 2 10 23 28 25 14 33 22 26 47 64 76 83 85 84 72 54 41 35 63 72 62 43 72 81 93 98 91 92 89 84 84 82 79 84 86 79 75 70 65 61 61 65
8 5 7 8 7 17 29 13 13 15 46 36 19 20 42 57 62 72 77 82 82 77 70 51 42 40 45 68 69 57 74 79 95 95 97 91 89 85 79 75 76 90 88 78 75 71 68 69 72
2 6 5 2 6 7 9 12 23 16 16 29 33 31 56 64 77 81 81 76 74 74 73 66 47 40 39 42 60 69 55 75 84 87 86 83 83 81 74 68 62 64 84 88 79 79 77 75 83
6 6 5 5 7 13 14 15 17 23 28 22 24 47 60 83 81 80 77 73 71 64 66 68 51 44 39 44 41 56 67 71 76 81 59 55 65 75 70 67 62 60 59 83 83 80 81 86 85
5 2 5 5 8 6 11 20 14 18 18 25 33 53 66 76 77 78 76 70 67 62 53 56 47 44 37 38 43 43 36 52 68 70 58 54 53 56 64 67 62 61 64 70 79 79 84 81 70
5 11 10 8 9 7 7 22 12 18 19 27 45 71 80 75 82 79 70 69 60 53 45 46 43 43 34 37 36 37 33 57 76 82 65 58 56 49 71 64 60 75 74 73 83 65 49 39 42
Wind_Direction_850mb
341 336 285 253 48 65 235 259 273 314 313 309 258 194 201 202 174 207 186 174 182 185 181 186 189 192 189 185 168 159 164 166 168 170 165 170 161 152 135 130 130 127 124 123 120 123 126 123 116
335 348 230 121 103 113 262 228 237 241 294 279 130 160 254 236 196 209 161 175 174 183 183 186 190 190 184 176 158 155 165 171 177 171 170 172 165 147 139 138 134 132 132 129 125 128 130 123 117
337 345 194 134 149 183 232 225 197 287 330 215 297 248 247 257 210 197 192 180 171 182 188 189 190 190 183 173 164 165 172 181 188 182 182 189 191 146 146 145 142 139 140 133 132 132 129 125 120
349 341 40 109 227 261 213 274 286 333 354 244 303 290 253 217 203 214 197 183 177 184 189 191 191 192 184 178 173 175 178 192 201 193 189 197 189 171 150 148 155 150 148 140 138 138 141 137 124
336 105 27 339 290 273 271 282 302 310 297 290 260 259 268 229 220 197 192 191 188 188 190 193 195 195 188 184 181 180 183 190 198 192 196 207 200 170 166 162 157 156 148 141 146 146 146 145 145
190 110 114 252 256 280 286 286 290 281 290 318 243 219 251 243 216 200 202 199 191 197 194 196 197 200 193 186 185 186 189 194 204 197 204 208 200 193 188 186 175 172 154 152 154 156 159 163 164
114 91 210 206 236 289 264 316 247 273 297 327 276 201 263 249 213 213 205 198 193 195 201 199 200 203 199 190 185 190 199 198 201 208 205 205 209 207 203 197 185 174 170 168 166 169 175 178 187
104 105 351 272 240 276 322 287 269 269 290 337 337 310 290 297 227 208 202 199 197 200 202 204 203 205 200 194 192 195 196 197 203 213 218 212 219 219 210 201 195 192 185 182 181 185 188 195 204
88 71 182 290 321 297 352 1 328 323 301 312 315 305 304 293 240 208 198 195 201 204 204 207 207 205 201 197 197 200 200 201 205 212 223 217 226 228 223 213 203 200 194 193 195 199 203 211 215
78 118 22 48 355 330 321 330 325 333 314 305 309 314 314 295 250 218 206 204 204 207 205 207 209 206 202 201 202 204 205 206 207 216 222 226 232 236 233 224 213 205 203 204 207 211 216 223 226
7 99 345 319 336 329 308 309 320 318 316 305 324 309 318 318 254 228 224 219 215 211 210 209 208 209 206 204 204 206 207 207 211 216 222 230 236 237 232 223 218 213 208 211 215 220 223 223 223
49 20 6 325 325 323 310 308 297 280 275 292 293 296 299 299 281 243 233 227 221 217 216 214 213 210 210 209 209 210 209 208 212 219 223 231 237 239 235 226 223 216 215 216 217 223 226 225 224
62 343 341 357 3 343 331 322 297 283 307 300 296 292 297 292 283 264 242 237 230 224 221 220 216 215 212 214 214 215 215 217 219 222 227 234 240 242 236 227 221 215 214 216 222 226 229 229 232
330 339 343 1 1 343 349 322 308 352 347 341 333 317 291 285 282 269 250 243 238 233 228 224 221 220 217 219 218 219 221 221 223 228 233 237 241 241 235 227 221 217 218 220 224 224 227 226 229
352 48 344 359 347 332 348 3 53 342 336 333 333 323 318 305 287 271 267 255 250 240 232 229 225 222 222 224 223 223 224 226 228 230 235 239 239 236 233 231 230 225 225 229 225 226 227 230 233
30 59 3 306 340 344 19 314 330 325 328 320 320 316 312 304 297 277 265 271 258 245 239 233 229 226 226 227 229 228 227 229 232 234 236 237 236 234 234 232 230 227 229 229 228 230 233 237 243
21 338 328 307 317 321 28 309 307 312 310 306 307 311 305 302 295 284 268 265 268 268 247 238 231 229 228 229 232 230 230 232 235 237 237 235 235 234 235 233 230 229 230 231 232 234 239 244 248
315 356 297 282 306 339 317 296 304 303 300 293 294 305 311 298 292 288 287 266 269 262 263 257 241 230 230 230 231 231 232 232 235 236 236 236 236 234 234 233 230 230 232 233 231 233 237 240 245
212 232 291 271 307 328 319 294 293 299 296 296 302 307 309 301 287 296 297 270 284 282 262 263 253 245 232 228 228 228 229 230 230 232 234 236 237 236 233 231 230 230 232 232 235 237 238 240 243
30 334 310 289 296 316 310 299 296 286 287 302 305 308 330 333 296 268 303 299 286 276 281 260 276 255 245 235 230 231 233 233 235 235 234 232 232 233 231 230 230 230 235 235 236 236 238 242 238
320 260 307 291 317 293 341 278 328 300 307 340 348 357 15 6 355 308 285 300 291 274 298 300 293 285 263 250 236 232 234 234 236 235 237 233 231 234 231 230 232 233 237 239 239 239 240 242 238
317 347 312 310 330 315 57 289 295 305 321 309 337 354 358 10 20 16 355 346 326 293 269 286 291 289 267 246 236 237 231 231 235 235 237 239 233 238 234 233 234 237 240 242 241 242 244 245 240
266 321 298 304 301 354 2 336 280 320 316 313 321 336 347 360 4 11 14 14 25 338 260 267 276 280 279 257 253 238 240 239 241 241 241 242 239 239 245 237 237 241 242 244 244 242 242 244 245
315 322 328 28 11 356 238 64 282 285 273 311 311 327 341 347 350 350 353 353 359 4 9 260 259 258 280 284 255 251 244 245 237 237 241 243 243 240 244 244 241 242 245 245 244 245 244 242 243
25 26 349 359 6 257 318 351 256 288 295 273 298 302 333 341 342 341 340 337 341 346 354 354 294 272 279 278 282 254 251 246 243 239 240 243 244 243 244 243 242 242 240 241 243 243 246 246 241
2 73 121 289 302 288 301 227 257 244 298 313 299 306 320 331 331 332 330 324 327 332 332 340 339 329 297 268 267 270 252 255 248 245 246 247 249 252 253 254 256 245 242 240 242 243 245 246 246
360 45 170 227 289 286 266 281 288 275 292 322 322 312 319 325 328 328 325 315 311 313 313 322 324 320 315 304 266 256 272 251 253 251 251 252 253 255 257 260 258 251 242 238 240 241 245 247 253
162 154 37 24 345 296 284 280 248 298 304 314 318 319 320 320 319 320 323 321 311 302 303 309 314 315 312 310 294 265 254 258 265 244 251 258 265 258 258 256 249 252 249 236 237 240 247 247 245
133 101 83 130 158 242 307 283 225 254 279 293 299 309 309 308 316 319 322 323 319 311 302 302 307 309 310 313 306 280 251 253 257 259 256 263 270 267 266 259 250 248 244 235 237 237 247 237 232
148 204 155 129 255 227 265 265 251 260 275 290 305 310 310 308 313 314 317 325 322 322 320 309 298 304 307 312 300 292 277 259 262 253 258 254 260 271 257 257 257 243 238 233 232 226 187 180 174